STARLINK-36546, 67459

Orbit data source: Space-Track

STARLINK-36546, 67459 is a payload satellite owned by SpaceX/Seattle (US) in LEO that was launched on Wed, 14 Jan 2026 UTC via an FALCON 9 launch vehicle from the Air Force Eastern Test Range (AFETR). Payload-class satellites include a variety of spacecraft equipped with specific instruments for various scientific and technological missions. These include communications satellites like Starlink; space stations such as the ISS; scientific satellites like the Hubble; Earth observation satellites from companies like Planet Labs, Umbra, and HawkEye 360; GPS; miniature CubeSats for education and research; and military/defense satellites.

Loading next visibility...
Identifier
67459, 2026-008Q
Orbit
LEO
Country
Flag of USUS
Related business
Manufacturer
SpaceX/Seattle
Mission
Operational spacecraft
Bus & Motor
STARLINK V2MO, Unknown motor
Mass
575 kg wet, ~530 kg dry
Launch date (UTC)
2026-01-14 (2 months ago)
Launch vehicle
FALCON 9
Launch site
Air Force Eastern Test Range (AFETR)
Object type
Payload
Rocket body
Debris
Shape & HBR
Unknown shape, 17.7 m
Radar Cross Section
RCS unknown

Expand to show TLE details & history
Last TLE update: 13 hours ago

TLE from 13 hours ago
0 STARLINK-36546
1 67459U 26008Q   26062.90826611  .00031255  00000-0  11391-2 0  9999
2 67459  43.0039 238.2507 0002169 271.0006  89.0597 15.27619032  8689
Epoch: 2026-03-03T21:47Z
TLE epoch observation values (Epoch: 2026-03-03T21:47:54.191Z)
Latitude
-0.00005°
Longitude
109.59427°
Altitude
482.684 km
Speed
7.626 km/s
True Right ascension
15h 53m 00s
True Declination
0° 00' 00"
Sunlit
Object was in daylight at epoch
Visualization orbit readout
Latitude
Unknown
Longitude
Unknown
Altitude
Unknown
Speed
Unknown
Apparent Right ascension
Unknown
Apparent Declination
Unknown
Sunlit
N/A
Visualization observer readout
Local Sidereal Time
14:13:58
Azimuth
Unknown
Elevation
Unknown
Doppler factor
Unknown
Orbital elements
Apogee altitude
486.365 km
Perigee altitude
483.388 km
Semi-major axis
6,863.014 km
Eccentricity
0.00022
Inclination
43.0039°
RAAN
238.2507°
Arg. of periapsis
271.0006°
True anomaly
89.08455°
Mean anomaly
89.0597°
Eccentric anomaly
89.07213°
Mean motion
3.81743 °/min
Orbital period
94.3 mins
BSTAR
0.0011391
Loading maneuver chart data...
Computing Atmospheric mass density...
Loading historical data...
Loading historical data...
Loading historical data...
Loading historical data...
Loading historical data...
Loading historical data...
Loading historical data...

Documentation

Showing up to 5 results
|